PDT,Max TemperatureF,Mean TemperatureF,Min TemperatureF,Max Dew PointF,MeanDew PointF,Min DewpointF,Max Humidity, Mean Humidity, Min Humidity, Max Sea Level PressureIn, Mean Sea Level PressureIn, Min Sea Level PressureIn, Max VisibilityMiles, Mean VisibilityMiles, Min VisibilityMiles, Max Wind SpeedMPH, Mean Wind SpeedMPH, Max Gust SpeedMPH,PrecipitationIn, CloudCover, Events, WindDirDegrees
2013-10-1,80,61,42,49,44,41,100,64,27,29.99,29.95,29.89,10,9,1,15,5,18,0.00,1,Fog,354
2013-10-2,81,64,47,48,41,28,93,54,15,29.99,29.94,29.90,10,10,10,23,8,30,0.00,0,,331
2013-10-3,79,66,53,38,28,15,51,30,9,30.06,30.00,29.95,10,10,9,31,16,39,0.00,0,,354
2013-10-4,85,68,51,32,21,16,45,27,8,30.07,30.02,29.99,10,10,10,30,12,39,0.00,0,,25
2013-10-5,87,63,39,35,30,23,73,42,10,30.17,30.11,30.07,10,10,10,10,3,13,0.00,0,,239
2013-10-6,86,64,42,36,33,27,76,45,13,30.11,30.04,29.98,10,10,10,8,3,12,0.00,2,,283
2013-10-7,84,63,42,45,37,21,77,44,10,29.98,29.91,29.83,10,10,8,10,3,13,0.00,2,,246
2013-10-8,78,60,41,45,41,38,89,57,25,29.89,29.80,29.69,10,10,9,13,4,17,0.00,1,,282
2013-10-9,78,63,48,42,39,33,71,45,19,29.73,29.64,29.60,10,10,10,18,6,23,0.00,1,,330
2013-10-10,74,59,44,46,42,38,100,67,33,29.99,29.87,29.74,10,8,4,13,4,17,0.00,1,,209
2013-10-11,69,56,43,47,45,43,100,70,39,30.10,30.02,29.96,9,3,0,13,3,16,0.00,3,Fog,172
2013-10-12,73,57,41,47,44,41,100,71,41,30.01,29.95,29.86,10,4,0,20,4,26,0.00,3,Fog,142
2013-10-13,77,58,39,45,41,31,100,60,19,30.05,29.97,29.91,10,8,7,14,3,18,0.00,0,,222
2013-10-14,82,60,38,41,38,32,92,55,17,30.10,30.04,29.97,10,8,6,12,3,,0.00,0,,268
2013-10-15,85,61,36,39,32,23,85,48,10,30.03,29.98,29.92,10,8,6,14,2,18,0.00,0,,239
2013-10-16,83,60,36,36,32,26,82,48,13,30.07,30.02,29.98,10,8,6,12,3,15,0.00,0,,235
2013-10-17,84,62,39,42,35,29,79,47,15,30.07,30.00,29.93,10,8,5,10,2,14,0.00,0,,179
2013-10-18,80,59,37,43,39,35,93,57,21,30.04,30.00,29.96,10,7,4,13,2,15,0.00,0,,170
2013-10-19,85,61,37,43,39,31,100,57,14,30.06,30.01,29.96,10,7,4,9,2,12,0.00,0,Fog,187
2013-10-20,81,59,37,47,41,37,100,63,25,30.02,29.98,29.88,10,4,0,13,3,15,0.00,3,Fog,160
2013-10-21,74,60,45,49,46,45,100,69,38,30.01,29.95,29.88,10,4,0,9,2,10,0.00,3,Fog,177
2013-10-22,80,63,45,49,46,45,100,66,31,30.02,29.97,29.89,10,3,0,10,3,12,0.00,1,Fog,162
2013-10-23,78,61,44,49,46,44,100,69,38,29.98,29.94,29.87,10,4,0,13,4,16,0.01,4,Fog,170
2013-10-24,67,55,42,48,46,43,100,73,45,30.09,30.02,29.96,10,5,1,10,3,13,0.00,5,,180
2013-10-25,72,55,37,48,42,37,100,71,41,30.18,30.12,30.06,10,4,0,8,2,10,0.00,3,Fog,202
2013-10-26,83,59,35,46,41,37,100,61,22,30.13,30.08,29.99,10,7,0,9,2,12,0.00,0,Fog,192
2013-10-27,65,54,42,48,45,39,100,76,52,30.03,29.85,29.62,10,5,0,21,4,26,0.01,3,Fog,191
2013-10-28,67,53,38,45,41,36,92,66,40,29.80,29.69,29.64,10,10,9,14,4,18,0.00,1,,167
2013-10-29,66,53,40,45,43,39,96,70,44,30.04,29.93,29.82,10,10,8,13,3,15,0.00,4,,346
2013-10-30,68,51,34,44,39,34,100,71,42,30.14,30.08,30.04,10,6,0,13,2,16,0.00,1,Fog,198
2013-10-31,75,55,35,43,40,35,92,63,33,30.16,30.10,30.04,10,10,9,7,2,,0.00,0,,179